[[{"header":{"parameterUnit":"m.s-1","parameterCategory":1,"la1":30.2991,"la2":30.254,"lo1":-89.0895,"lo2":-89.0444,"dy":0.0017,"dx":0.0017,"nx":28,"ny":28,"refTime":"2024-04-10T09:00:00:Z","depth":0,"parameterNumber":2,"parameterNumberName":"U-component_of_WINDS"},"data":[0,0,0,0,0,0,0,0,0,0,0,0,0,0,0,0,0,0,0,0,0,0,0,0,0,0,0,0,0,0,0,0,0,0,0,0,0,0,0,0,0,0,0,0,0,0,0,0,0,0,0,0,0,0,0,0,0,0,3.2822,3.2823,0,3.2905,3.2906,3.2906,3.2839,3.2836,3.2833,3.283,3.2918,3.2923,3.2928,0,0,0,0,0,0,0,0,0,0,0,0,0,3.261,3.2615,3.2822,3.2823,3.2824,3.2904,3.2906,3.2907,3.2839,3.2836,3.2832,3.2829,3.2916,3.2922,3.2928,0,0,0,0,0,0,0,0,0,0,0,0,0,3.2699,3.2616,3.2822,3.28,3.2799,3.2904,3.2906,3.2907,3.284,3.2836,3.2831,3.2827,3.2914,3.2922,3.2929,3.3061,0,0,3.2952,3.2955,0,0,0,0,0,0,0,0,3.2694,3.2707,3.2803,3.2802,3.2801,3.2857,3.2863,3.2959,3.2841,3.2825,3.283,3.2825,3.2901,3.291,3.2934,3.3065,3.3069,3.2952,3.2957,3.296,3.2962,0,0,0,0,0,0,0,3.2688,3.2703,3.2855,3.2804,3.2803,3.2788,3.2795,3.2881,3.2886,3.2826,3.2821,3.2832,3.29,3.2927,3.2936,3.307,3.2952,3.2959,3.2964,3.2966,3.3314,3.3318,0,0,0,0,0,0,3.2683,3.2698,3.2852,3.2857,3.2736,3.2795,3.2804,3.2843,3.2885,3.2887,3.2835,3.2828,3.2917,3.2927,3.2939,3.3097,3.296,3.2967,3.2971,3.3309,3.3315,3.332,0,0,0,0,0,0,3.2679,3.2698,3.2849,3.2776,3.2794,3.2803,3.2848,3.2847,3.2874,3.2892,3.2893,3.2862,3.2914,3.2928,3.3031,3.3099,3.2971,3.2977,3.3304,3.3311,3.3318,3.3413,0,0,0,0,0,0,3.2673,3.2697,3.2746,3.2778,3.2799,3.2939,3.2852,3.2852,3.2887,3.2879,3.2917,3.292,3.2912,3.302,3.3039,3.3107,3.2983,3.3298,3.3307,3.3315,3.3404,3.3423,3.3439,0,0,0,0,0,3.2666,3.277,3.2749,3.2768,3.286,3.2943,3.2955,3.2943,3.2893,3.2943,3.2955,3.2918,3.3088,3.3031,3.3051,3.3123,3.3293,3.3304,3.3315,3.3396,3.3419,3.3438,0,0,0,0,0,0,3.2747,3.2774,3.2751,3.2868,3.2904,3.2931,3.2994,3.2967,3.3018,3.3008,3.2992,3.3001,3.3109,3.3126,3.3062,3.3253,3.3183,3.3198,3.3238,3.326,3.3277,3.3271,3.2989,0,0,0,0,0,3.2778,3.2842,3.2863,3.2964,3.2983,3.2986,3.3022,3.3009,3.3046,3.3061,3.3079,3.3117,3.3179,3.3221,3.3278,3.3406,3.3414,3.3465,3.3483,3.3497,3.351,3.358,3.3604,3.3355,3.3355,3.3355,0,0,3.2844,3.2867,3.2908,3.2981,3.3007,3.3075,3.2999,3.3074,3.3124,3.3072,3.317,3.3186,3.3227,3.3343,3.3395,3.336,3.3581,3.351,3.3522,3.3528,3.3594,3.3617,3.3638,3.3362,3.3361,3.336,0,0,3.2998,3.3021,3.3109,3.3137,3.3177,3.3178,3.3199,3.3232,3.3239,3.3337,3.33,3.336,3.3467,3.3498,3.3528,3.3695,3.3665,3.3715,3.3806,3.3874,3.3894,3.3911,3.3972,3.3993,3.3728,3.3728,3.3729,0,3.3075,3.3175,3.3158,3.3236,3.3269,3.3224,3.3314,3.3342,3.34,3.3425,3.3385,3.3518,3.3543,3.3666,3.3707,3.3732,3.3757,3.3711,3.3892,3.3909,3.3925,3.3983,3.4005,3.3734,3.3734,3.3733,3.3732,0,3.3268,3.3337,3.3404,3.346,3.3501,3.3584,3.3581,3.3625,3.3609,3.3615,3.3716,3.3744,3.3807,3.3835,3.3821,3.3957,3.3935,3.3894,3.3823,3.3955,3.4009,3.4031,3.3743,3.3741,3.3739,3.3737,0,0,3.3476,3.3521,3.3546,3.3571,3.3612,3.3667,3.3748,3.3809,3.3848,3.3889,3.3958,3.405,3.4012,3.4047,3.4035,3.4095,3.4227,3.4047,3.4048,3.408,3.438,3.4411,3.4437,3.4206,3.4211,3.4214,3.4377,0,3.3633,3.3774,3.3761,3.3895,3.396,3.3919,3.399,3.4024,3.4032,3.4089,3.4098,3.4163,3.4109,3.4129,3.4186,3.4199,3.4287,3.4187,3.4272,3.4275,3.4263,3.4465,3.4498,3.4651,3.4398,3.4402,3.4404,0,3.3835,3.3882,3.4023,3.4055,3.4081,3.4146,3.4201,3.4255,3.4294,3.4295,3.4334,3.4312,3.4396,3.4323,3.4439,3.4371,3.4405,3.4416,3.4422,3.443,3.4348,3.448,3.4699,3.4723,3.4437,3.4435,3.4432,0,3.3973,3.4073,3.417,3.4193,3.4232,3.4278,3.4297,3.4331,3.4369,3.4417,3.4442,3.45,3.4532,3.4578,3.4574,3.4521,3.4693,3.4619,3.4697,3.4698,3.4736,3.4734,3.4965,3.4757,3.4756,3.4756,3.4756,0,3.415,3.4238,3.4233,3.4293,3.439,3.4376,3.4473,3.4487,3.4517,3.458,3.4548,3.4608,3.4597,3.4658,3.4655,3.4752,3.4767,3.4771,3.477,3.4775,3.4774,3.4798,3.4787,3.4762,3.4761,3.476,3.4759,0,3.4322,3.4322,3.4425,3.4454,3.4463,3.4534,3.4559,3.4617,3.4622,3.4702,3.472,3.4728,3.4798,3.4797,3.4877,3.4875,3.4994,3.498,3.4981,3.4979,3.5058,3.5051,3.5313,3.5347,3.5116,3.5118,3.512,0,3.4436,3.4502,3.4538,3.4577,3.4599,3.4662,3.47,3.4689,3.473,3.4779,3.4831,3.4897,3.4949,3.5062,3.5077,3.5137,3.5125,3.5213,3.5134,3.5137,3.5128,3.5124,3.5131,3.5228,3.5231,3.5233,3.5235,0,3.4637,3.4634,3.4689,3.4746,3.4792,3.4835,3.4876,3.491,3.4903,3.4951,3.5021,3.5062,3.5143,3.521,3.5268,3.5289,3.5262,3.5259,3.5281,3.5287,3.5285,3.5288,3.5024,3.5253,3.5252,3.525,3.5249,3.5248,3.4784,3.4842,3.4876,3.4939,3.4968,3.5007,3.5062,3.5074,3.5131,3.5195,3.5186,3.5264,3.5301,3.5377,3.5403,3.5466,3.5435,3.5466,3.5474,3.5482,3.5492,3.5275,3.5476,3.5476,3.5475,3.5475,3.5474,0,3.4985,3.5005,3.5063,3.512,3.517,3.5139,3.5182,3.5226,3.5295,3.5332,3.5384,3.5465,3.553,3.5549,3.5612,3.5658,3.5647,3.5675,3.5672,3.5677,3.5515,3.549,3.5683,3.5682,3.5682,3.5682,3.5682,3.5682,3.5095,3.5191,3.5192,3.5302,3.5322,3.5397,3.5425,3.5461,3.549,3.5582,3.5635,3.5646,3.5676,3.5741,3.5799,3.5804,3.5829,3.5862,3.5861,3.5709,3.5688,3.5669,3.5645,3.5867,3.5868,3.6019,3.602,3.6021]},{"header":{"parameterUnit":"m.s-1","parameterCategory":1,"la1":30.2991,"la2":30.254,"lo1":-89.0895,"lo2":-89.0444,"dy":0.0017,"dx":0.0017,"nx":28,"ny":28,"refTime":"2024-04-10T09:00:00:Z","depth":0,"parameterNumber":3,"parameterNumberName":"V-component_of_WINDS"},"data":[0,0,0,0,0,0,0,0,0,0,0,0,0,0,0,0,0,0,0,0,0,0,0,0,0,0,0,0,0,0,0,0,0,0,0,0,0,0,0,0,0,0,0,0,0,0,0,0,0,0,0,0,0,0,0,0,0,0,-1.6709,-1.671,0,-1.6836,-1.6837,-1.6838,-1.6842,-1.684,-1.6839,-1.6837,-1.697,-1.6975,-1.698,0,0,0,0,0,0,0,0,0,0,0,0,0,-1.6473,-1.6477,-1.6709,-1.671,-1.6712,-1.6835,-1.6837,-1.6839,-1.6842,-1.684,-1.6838,-1.6836,-1.6968,-1.6974,-1.698,0,0,0,0,0,0,0,0,0,0,0,0,0,-1.6585,-1.6479,-1.6708,-1.6728,-1.6731,-1.6835,-1.6837,-1.6839,-1.6842,-1.684,-1.6838,-1.6836,-1.6966,-1.6974,-1.6981,-1.7074,0,0,-1.7004,-1.7007,0,0,0,0,0,0,0,0,-1.6579,-1.6594,-1.6724,-1.6727,-1.6731,-1.682,-1.6803,-1.6918,-1.6843,-1.68,-1.6837,-1.6834,-1.6922,-1.6933,-1.6962,-1.708,-1.7086,-1.7005,-1.7009,-1.7012,-1.7014,0,0,0,0,0,0,0,-1.6571,-1.6588,-1.6759,-1.6726,-1.673,-1.6732,-1.6745,-1.6825,-1.6873,-1.6804,-1.6804,-1.6819,-1.6924,-1.6955,-1.6965,-1.7088,-1.7004,-1.7011,-1.7016,-1.7019,-1.7291,-1.7294,0,0,0,0,0,0,-1.6559,-1.6582,-1.6755,-1.6763,-1.6647,-1.6738,-1.6753,-1.6794,-1.6872,-1.6882,-1.6821,-1.6819,-1.6943,-1.6957,-1.697,-1.7086,-1.7012,-1.7019,-1.7024,-1.7288,-1.7292,-1.7294,0,0,0,0,0,0,-1.6554,-1.6574,-1.675,-1.6673,-1.6695,-1.6745,-1.6791,-1.6798,-1.6829,-1.6885,-1.6894,-1.6844,-1.6942,-1.696,-1.7049,-1.709,-1.7023,-1.7029,-1.7285,-1.7289,-1.7293,-1.7316,0,0,0,0,0,0,-1.6547,-1.6572,-1.6607,-1.6673,-1.6699,-1.6825,-1.6793,-1.6802,-1.6842,-1.684,-1.6909,-1.6918,-1.6942,-1.7037,-1.7056,-1.7099,-1.7035,-1.7281,-1.7287,-1.7292,-1.7312,-1.7321,-1.7328,0,0,0,0,0,-1.6539,-1.6609,-1.6609,-1.663,-1.6744,-1.6827,-1.6842,-1.6867,-1.6845,-1.6881,-1.6918,-1.6916,-1.7082,-1.7046,-1.7067,-1.7114,-1.7279,-1.7285,-1.7291,-1.7308,-1.7319,-1.7328,0,0,0,0,0,0,-1.6548,-1.6618,-1.6619,-1.6713,-1.6764,-1.6828,-1.6874,-1.6877,-1.6936,-1.6933,-1.6962,-1.6977,-1.7066,-1.7099,-1.7057,-1.7209,-1.7178,-1.7189,-1.7184,-1.7195,-1.7202,-1.7193,-1.7042,0,0,0,0,0,-1.6561,-1.6622,-1.668,-1.6758,-1.6783,-1.6824,-1.6862,-1.6876,-1.6931,-1.6953,-1.6995,-1.7049,-1.7114,-1.7156,-1.7218,-1.7317,-1.7333,-1.7359,-1.7367,-1.7373,-1.7382,-1.7438,-1.7451,-1.7315,-1.7315,-1.7315,0,0,-1.6588,-1.6634,-1.6671,-1.6761,-1.6802,-1.6866,-1.6843,-1.6911,-1.6959,-1.6963,-1.705,-1.7083,-1.7146,-1.724,-1.7284,-1.727,-1.7423,-1.7381,-1.7386,-1.7392,-1.7446,-1.7459,-1.747,-1.7319,-1.7318,-1.7318,0,0,-1.6671,-1.6711,-1.678,-1.6822,-1.6885,-1.6912,-1.6929,-1.6993,-1.7015,-1.7102,-1.7107,-1.7165,-1.7275,-1.732,-1.7357,-1.7457,-1.7459,-1.7477,-1.7519,-1.7573,-1.7584,-1.7594,-1.7631,-1.7644,-1.7486,-1.7486,-1.7486,0,-1.6697,-1.6792,-1.6816,-1.6884,-1.6924,-1.6931,-1.7002,-1.7042,-1.7122,-1.715,-1.7134,-1.7273,-1.7315,-1.7421,-1.7445,-1.7474,-1.7496,-1.7469,-1.758,-1.759,-1.76,-1.7636,-1.7649,-1.7488,-1.7487,-1.7487,-1.7487,0,-1.6822,-1.6888,-1.6937,-1.7014,-1.7059,-1.7129,-1.7164,-1.7207,-1.7218,-1.7247,-1.7337,-1.7388,-1.7461,-1.7487,-1.7499,-1.7595,-1.7585,-1.7574,-1.7544,-1.7614,-1.7648,-1.7662,-1.749,-1.749,-1.7489,-1.7489,0,0,-1.6915,-1.7003,-1.7021,-1.7056,-1.7126,-1.7179,-1.7249,-1.732,-1.7357,-1.7413,-1.7474,-1.7567,-1.7558,-1.76,-1.7616,-1.7664,-1.7742,-1.7647,-1.7649,-1.7664,-1.7853,-1.7861,-1.7877,-1.7743,-1.7746,-1.7748,-1.7848,0,-1.7006,-1.713,-1.7153,-1.7262,-1.7324,-1.7332,-1.7393,-1.7444,-1.7473,-1.7531,-1.7564,-1.763,-1.7612,-1.7638,-1.7685,-1.7722,-1.778,-1.7715,-1.7801,-1.7804,-1.7786,-1.7894,-1.7903,-1.7996,-1.7861,-1.7864,-1.7865,0,-1.7128,-1.7186,-1.7301,-1.7363,-1.739,-1.7445,-1.7513,-1.7568,-1.7625,-1.7644,-1.7691,-1.7703,-1.7778,-1.7744,-1.7849,-1.7804,-1.7841,-1.7864,-1.7869,-1.7878,-1.7839,-1.7908,-1.8025,-1.804,-1.7886,-1.7885,-1.7883,0,-1.7186,-1.7292,-1.7375,-1.7405,-1.7479,-1.7518,-1.7551,-1.7606,-1.7648,-1.7708,-1.7735,-1.7803,-1.784,-1.7893,-1.7923,-1.7896,-1.8027,-1.7995,-1.8045,-1.8045,-1.8073,-1.8071,-1.8199,-1.8095,-1.8095,-1.8094,-1.8094,0,-1.7285,-1.7355,-1.7401,-1.7452,-1.7532,-1.7559,-1.7637,-1.767,-1.7719,-1.7778,-1.7789,-1.7844,-1.788,-1.794,-1.7964,-1.8048,-1.8065,-1.8083,-1.8089,-1.8083,-1.8081,-1.8108,-1.8103,-1.8098,-1.8097,-1.8097,-1.8096,0,-1.7363,-1.7396,-1.7487,-1.755,-1.7568,-1.7624,-1.7679,-1.7729,-1.7758,-1.7833,-1.7852,-1.7899,-1.7971,-1.8006,-1.8095,-1.8112,-1.8207,-1.8208,-1.8187,-1.819,-1.8239,-1.8234,-1.839,-1.8412,-1.8292,-1.8293,-1.8294,0,-1.7425,-1.7479,-1.7548,-1.7587,-1.7621,-1.7685,-1.7727,-1.7756,-1.78,-1.7871,-1.7913,-1.7985,-1.8045,-1.816,-1.8203,-1.8272,-1.8276,-1.8325,-1.8286,-1.8279,-1.8278,-1.8275,-1.8281,-1.8333,-1.8334,-1.8335,-1.8335,0,-1.7532,-1.7546,-1.7605,-1.7672,-1.7722,-1.7776,-1.7829,-1.7861,-1.7899,-1.7948,-1.8021,-1.8067,-1.8159,-1.8231,-1.8303,-1.8339,-1.8345,-1.8347,-1.8363,-1.8358,-1.8344,-1.8354,-1.8208,-1.8344,-1.8343,-1.8342,-1.8342,-1.8342,-1.7604,-1.7653,-1.7709,-1.7776,-1.7819,-1.7869,-1.792,-1.7955,-1.8016,-1.8092,-1.8106,-1.8185,-1.8243,-1.834,-1.8378,-1.8441,-1.843,-1.8452,-1.8458,-1.8463,-1.8467,-1.8333,-1.8454,-1.8454,-1.8454,-1.8453,-1.8453,0,-1.7713,-1.7749,-1.781,-1.7884,-1.7937,-1.7936,-1.7995,-1.804,-1.8108,-1.8161,-1.822,-1.8305,-1.8375,-1.8424,-1.8495,-1.8537,-1.8541,-1.8555,-1.8553,-1.8561,-1.8472,-1.8452,-1.855,-1.855,-1.855,-1.855,-1.855,-1.855,-1.7776,-1.7859,-1.7879,-1.7984,-1.8021,-1.8097,-1.8131,-1.8177,-1.822,-1.8314,-1.8372,-1.8402,-1.8455,-1.853,-1.8595,-1.8608,-1.8635,-1.8649,-1.8662,-1.8577,-1.8567,-1.8558,-1.8539,-1.8654,-1.8654,-1.8746,-1.8747,-1.8747]}]]